Terminal Aerodrome Forecast
Issued by NWS Milwaukee/Sullivan, WI

Home | Current Version | Previous Version | Text Only | Print | Product List | Glossary On
Versions: 1 2 3 4 5 6 7 8 9 10 11 12 13 14 15 16 17 18 19 20 21 22 23 24 25 26 27 28 29 30 31 32 33 34
000
FTUS43 KMKX 061120
TAFMKE
TAF
KMKE 061120Z 0612/0718 25004KT P6SM BKN090
     FM061800 16006KT P6SM FEW120
     FM070200 24007KT P6SM SCT250
     FM070500 26010KT P6SM SCT250 WS015/28040KT
     FM071100 32010KT P6SM -SHRA BKN050 BKN110
     FM071400 35012KT P6SM OVC040=

USA.gov is the U.S. government's official web portal to all federal, state and local government web resources and services.